Location: Waco, TX
(31.5480°N, 97.1670°W)
Time: 18:13:07
(UTC-06:00)

ISS - Pass Details

Date: 14 January 2019
Orbit: 404 x 410 km, 51.6° (Epoch: 24 January)

Event Time Altitude Azimuth Distance (km) Brightness Sun altitude
Rises 20:34:08 0° 190° (S) 2,314 - -35.1°
Reaches altitude 10° 20:36:42 10° 169° (SSE) 1,460 - -35.7°
Maximum altitude 20:38:53 17° 127° (SE) 1,129 - -36.1°
Drops below altitude 10° 20:41:04 10° 85° (E) 1,469 - -36.6°
Sets 20:43:40 0° 64° (ENE) 2,334 - -37.1°
